When you browse on this site, cookies collect data to enhance your experience and personalize the content and advertising you see.
Visit our Privacy Policy to learn more. By continuing to use the site, you agree to this use of cookies and data.
  • En España
  • Lista de países
  • Para 7 días
  • Temperatura del agua
  • El tiempo en el mapa
  • Informadores
  • user-avatar
    Iniciar sesión

    Tiempo cada hora Stuttgart

    Hoy, 3 Junio, Miércoles

    Tiempo Temperatura Precipitaciones Viento Presión Humedad
    00:00 +16°C° 0 mm 1 mps 733 mmHg 78%
    01:00 +16°C° 0 mm 1 mps 732 mmHg 79%
    02:00 +15°C° 0 mm 1 mps 732 mmHg 80%
    03:00 +15°C° 0 mm 1 mps 731 mmHg 81%
    04:00 +15°C° 0 mm 1 mps 731 mmHg 81%
    05:00 +16°C° 0.1 mm 1 mps 730 mmHg 80%
    06:00 +18°C° 0.1 mm 1 mps 730 mmHg 78%
    07:00 +19°C° 0.1 mm 1 mps 730 mmHg 77%
    08:00 +21°C° 0.5 mm 1 mps 730 mmHg 73%
    09:00 +22°C° 0.5 mm 1 mps 730 mmHg 69%
    10:00 +24°C° 0.5 mm 1 mps 729 mmHg 65%
    11:00 +25°C° 0.2 mm 1 mps 729 mmHg 59%
    12:00 +26°C° 0.2 mm 1 mps 728 mmHg 52%
    13:00 +27°C° 0.2 mm 2 mps 728 mmHg 46%
    14:00 +26°C° 0.1 mm 2 mps 727 mmHg 48%
    15:00 +26°C° 0.1 mm 2 mps 727 mmHg 50%
    16:00 +26°C° 0.1 mm 2 mps 726 mmHg 52%
    17:00 +25°C° 0.1 mm 2 mps 726 mmHg 58%
    18:00 +24°C° 0.1 mm 1 mps 725 mmHg 64%
    19:00 +23°C° 0.1 mm 1 mps 725 mmHg 70%
    20:00 +21°C° 0.4 mm 1 mps 725 mmHg 73%
    21:00 +20°C° 0.4 mm 1 mps 725 mmHg 76%
    22:00 +18°C° 0.4 mm 1 mps 725 mmHg 79%
    23:00 +18°C° 0.4 mm 1 mps 724 mmHg 82%

    Mañana, 4 Junio, Jueves

    Tiempo Temperatura Precipitaciones Viento Presión Humedad
    00:00 +16°C° 0.4 mm 2 mps 724 mmHg 85%
    01:00 +16°C° 0.4 mm 2 mps 724 mmHg 88%
    02:00 +16°C° 1.1 mm 2 mps 723 mmHg 90%
    03:00 +16°C° 1.1 mm 3 mps 723 mmHg 91%
    04:00 +16°C° 1.1 mm 3 mps 723 mmHg 93%
    05:00 +16°C° 0.2 mm 2 mps 723 mmHg 91%
    06:00 +16°C° 0.2 mm 2 mps 722 mmHg 90%
    07:00 +17°C° 0.2 mm 2 mps 722 mmHg 88%
    08:00 +18°C° 0.4 mm 2 mps 722 mmHg 83%
    09:00 +19°C° 0.4 mm 2 mps 722 mmHg 77%
    10:00 +21°C° 0.4 mm 2 mps 721 mmHg 72%
    11:00 +20°C° 1 mm 2 mps 721 mmHg 73%
    12:00 +20°C° 1 mm 3 mps 721 mmHg 74%
    13:00 +20°C° 1 mm 3 mps 720 mmHg 75%
    14:00 +19°C° 1.2 mm 3 mps 720 mmHg 79%
    15:00 +18°C° 1.2 mm 4 mps 720 mmHg 83%
    16:00 +17°C° 1.2 mm 4 mps 720 mmHg 87%
    17:00 +15°C° 1.1 mm 4 mps 721 mmHg 89%
    18:00 +16°C° 1.1 mm 3 mps 721 mmHg 90%
    19:00 +14°C° 1.1 mm 3 mps 721 mmHg 91%
    20:00 +14°C° 0.3 mm 3 mps 721 mmHg 91%
    21:00 +13°C° 0.3 mm 3 mps 722 mmHg 91%
    22:00 +14°C° 0.3 mm 2 mps 722 mmHg 91%
    23:00 +14°C° 0.7 mm 2 mps 722 mmHg 91%

    Pasado mañana, 5 Junio, Viernes

    Tiempo Temperatura Precipitaciones Viento Presión Humedad
    00:00 +14°C° 0.7 mm 2 mps 722 mmHg 92%
    01:00 +13°C° 0.7 mm 2 mps 722 mmHg 93%
    02:00 +13°C° 0.2 mm 2 mps 722 mmHg 93%
    03:00 +12°C° 0.2 mm 2 mps 722 mmHg 93%
    04:00 +10°C° 0.2 mm 2 mps 723 mmHg 93%
    05:00 +10°C° 0 mm 2 mps 723 mmHg 91%
    06:00 +12°C° 0 mm 2 mps 724 mmHg 90%
    07:00 +12°C° 0 mm 2 mps 724 mmHg 89%
    08:00 +12°C° 0.1 mm 3 mps 724 mmHg 82%
    09:00 +13°C° 0.1 mm 3 mps 724 mmHg 74%
    10:00 +14°C° 0.1 mm 3 mps 725 mmHg 67%
    11:00 +14°C° 0.2 mm 4 mps 725 mmHg 64%
    12:00 +15°C° 0.2 mm 4 mps 725 mmHg 62%
    13:00 +17°C° 0.2 mm 4 mps 724 mmHg 59%
    14:00 +16°C° 0.4 mm 5 mps 724 mmHg 62%
    15:00 +16°C° 0.4 mm 6 mps 724 mmHg 65%
    16:00 +16°C° 0.4 mm 6 mps 724 mmHg 68%
    17:00 +14°C° 0.3 mm 6 mps 725 mmHg 74%
    18:00 +13°C° 0.3 mm 6 mps 725 mmHg 81%
    19:00 +11°C° 0.3 mm 6 mps 725 mmHg 87%
    20:00 +10°C° 0.5 mm 5 mps 725 mmHg 89%
    21:00 +10°C° 0.5 mm 5 mps 726 mmHg 90%
    22:00 +10°C° 0.5 mm 5 mps 726 mmHg 91%
    23:00 +11°C° 0.8 mm 4 mps 726 mmHg 92%

    6 Junio, Sábado

    Tiempo Temperatura Precipitaciones Viento Presión Humedad
    00:00 +11°C° 0.8 mm 4 mps 726 mmHg 92%
    01:00 +12°C° 0.8 mm 4 mps 726 mmHg 93%
    02:00 +12°C° 0.1 mm 4 mps 726 mmHg 92%
    03:00 +11°C° 0.1 mm 4 mps 726 mmHg 92%
    04:00 +11°C° 0.1 mm 4 mps 726 mmHg 91%
    05:00 +12°C° 0.2 mm 4 mps 726 mmHg 90%
    06:00 +13°C° 0.2 mm 5 mps 726 mmHg 90%
    07:00 +13°C° 0.2 mm 6 mps 726 mmHg 89%
    08:00 +13°C° 0.3 mm 6 mps 726 mmHg 87%
    09:00 +14°C° 0.3 mm 6 mps 727 mmHg 86%
    10:00 +14°C° 0.3 mm 6 mps 727 mmHg 84%
    11:00 +15°C° 0.4 mm 6 mps 727 mmHg 82%
    12:00 +15°C° 0.4 mm 6 mps 727 mmHg 80%
    13:00 +16°C° 0.4 mm 6 mps 727 mmHg 78%
    14:00 +16°C° 0.1 mm 6 mps 727 mmHg 77%
    15:00 +16°C° 0.1 mm 5 mps 727 mmHg 76%
    16:00 +15°C° 0.1 mm 5 mps 728 mmHg 76%
    17:00 +15°C° 0 mm 4 mps 728 mmHg 77%
    18:00 +16°C° 0 mm 3 mps 728 mmHg 78%
    19:00 +16°C° 0 mm 3 mps 728 mmHg 79%
    20:00 +15°C° 0 mm 2 mps 729 mmHg 81%
    21:00 +14°C° 0 mm 2 mps 729 mmHg 84%
    22:00 +13°C° 0 mm 1 mps 729 mmHg 87%
    23:00 +13°C° 0.1 mm 1 mps 729 mmHg 87%

    7 Junio, Domingo

    Tiempo Temperatura Precipitaciones Viento Presión Humedad
    00:00 +13°C° 0.1 mm 1 mps 729 mmHg 88%
    01:00 +13°C° 0.1 mm 1 mps 729 mmHg 88%
    02:00 +13°C° 0.1 mm 1 mps 729 mmHg 89%
    03:00 +13°C° 0.1 mm 1 mps 729 mmHg 90%
    04:00 +13°C° 0.1 mm 1 mps 729 mmHg 91%
    05:00 +13°C° 0.3 mm 1 mps 729 mmHg 92%
    06:00 +12°C° 0.3 mm 0 mps 730 mmHg 93%
    07:00 +12°C° 0.3 mm 0 mps 730 mmHg 94%
    08:00 +13°C° 0.2 mm 1 mps 730 mmHg 92%
    09:00 +13°C° 0.2 mm 1 mps 730 mmHg 90%
    10:00 +13°C° 0.2 mm 1 mps 730 mmHg 88%
    11:00 +13°C° 0.2 mm 1 mps 731 mmHg 88%
    12:00 +13°C° 0.2 mm 2 mps 731 mmHg 88%
    13:00 +13°C° 0.2 mm 2 mps 731 mmHg 88%
    14:00 +12°C° 0.5 mm 2 mps 732 mmHg 86%
    15:00 +12°C° 0.5 mm 2 mps 732 mmHg 85%
    16:00 +12°C° 0.5 mm 2 mps 732 mmHg 84%
    17:00 +12°C° 0 mm 2 mps 733 mmHg 83%
    18:00 +12°C° 0 mm 2 mps 733 mmHg 82%
    19:00 +12°C° 0 mm 2 mps 733 mmHg 82%
    20:00 +10°C° 0 mm 2 mps 733 mmHg 83%
    21:00 +9°C° 0 mm 2 mps 734 mmHg 85%
    22:00 +8°C° 0 mm 2 mps 734 mmHg 87%
    23:00 +8°C° 0 mm 2 mps 734 mmHg 87%

    8 Junio, Lunes

    Tiempo Temperatura Precipitaciones Viento Presión Humedad
    00:00 +7°C° 0 mm 2 mps 734 mmHg 87%
    01:00 +8°C° 0 mm 1 mps 734 mmHg 87%
    02:00 +8°C° 0 mm 1 mps 734 mmHg 88%
    03:00 +8°C° 0 mm 1 mps 734 mmHg 88%
    04:00 +7°C° 0 mm 1 mps 734 mmHg 89%
    05:00 +9°C° 0 mm 1 mps 734 mmHg 85%
    06:00 +10°C° 0 mm 1 mps 734 mmHg 81%
    07:00 +12°C° 0 mm 1 mps 734 mmHg 76%
    08:00 +13°C° 0 mm 1 mps 734 mmHg 69%
    09:00 +15°C° 0 mm 1 mps 734 mmHg 61%
    10:00 +17°C° 0 mm 2 mps 734 mmHg 54%
    11:00 +17°C° 0 mm 2 mps 734 mmHg 52%
    12:00 +18°C° 0 mm 2 mps 734 mmHg 50%
    13:00 +18°C° 0 mm 2 mps 734 mmHg 49%
    14:00 +19°C° 0 mm 2 mps 734 mmHg 50%
    15:00 +19°C° 0 mm 2 mps 734 mmHg 52%
    16:00 +19°C° 0 mm 2 mps 734 mmHg 54%
    17:00 +18°C° 0.2 mm 2 mps 734 mmHg 62%
    18:00 +17°C° 0.2 mm 2 mps 735 mmHg 70%
    19:00 +16°C° 0.2 mm 1 mps 735 mmHg 78%
    20:00 +15°C° 0 mm 1 mps 735 mmHg 80%
    21:00 +13°C° 0 mm 1 mps 735 mmHg 82%
    22:00 +12°C° 0 mm 1 mps 735 mmHg 84%
    23:00 +12°C° 0 mm 1 mps 735 mmHg 85%
    Mostrar más